{"data":{"norad_id":54742,"intl_designator":"2022-170B","name":"GALAXY 36 (G-36)","alt_names":[],"object_type":"PAYLOAD","status":"ACTIVE","operator":null,"country":"ITSO","launch_date":"2022-12-13","launch_site_code":"FRGUI","launch_vehicle":null,"mission":null,"orbit_class":"UNKNOWN","rcs_meters":null,"size_class":null,"mass_kg":null,"dimensions":null,"purposes":["comms"],"wikipedia_slug":null,"has_3d_model":false,"image_url":null,"decayed_at":null,"tle_current":{"epoch":"2026-09-19T19:58:11.565984Z","epoch_age_seconds":72251,"freshness":"FRESH","line1":"1 54742U 22170B   26262.83207831 -.00000190  00000+0  00000+0 0  9993","line2":"2 54742   0.0195 146.0404 0002105 340.2795  82.9794  1.00272043 13738","mean_motion":1.00272043,"eccentricity":0.0002105,"inclination_deg":0.0195,"raan_deg":146.0404,"arg_perigee_deg":340.2795,"mean_anomaly_deg":82.9794,"bstar":0,"rev_number":1373,"period_min":1436.0932089516,"perigee_km":35777.646973727,"apogee_km":35795.398295433,"semimajor_km":42164.65963458,"source":"CELESTRAK","updated_at":"2026-09-20T09:00:35.526037Z"}}}